Location: Bogis-Bossey
(46.3500°N, 6.1667°E)
Time: 17:42:55
(UTC+00:00)

H-2A R/B - Pass Details

Date: 17 August 2022
Orbit: 525 x 646 km, 98.3° (Epoch: 30 September)

Event Time Altitude Azimuth Distance (km) Brightness Sun altitude
Exits shadow 19:52:39 - 176° (S) 2,647 5.4 -11.7°
Reaches altitude 10° 19:54:14 10° 180° (S) 2,013 4.9 -12.0°
Maximum altitude 19:58:33 57° 259° (W) 763 3.3 -12.6°
Drops below altitude 10° 20:03:00 10° 338° (NNW) 2,061 6.2 -13.2°
Sets 20:05:17 0° 343° (NNW) 2,977 7.0 -13.5°
